MAKERSAT 0 (43016 NORAD) Tracking and Keplerian Element Data

This shows tracking and keplerian element data for the satellite.

Feedback or suggestion? Click here.




ElementValue
Catalog43016
NameMAKERSAT 0
Epoch Orbit3520
Epoch Day195.76016116
Epoch Year2018
RAAN125.7501
Inclination97.7072
Eccentricity0.025924
Argument of Perigee181.501
Mean Anonmoly178.5453
Mean Motion14.78179477
Decay Rate3.58E-06
L11 43016U 17073D 18195.76016116 .00000358 00000-0 33644-4 0 9994
L22 43016 97.7072 125.7501 0259240 181.5010 178.5453 14.78179477 35205

Live tracking and technical data element details for MAKERSAT 0 (NORAD 43016). MAKERSAT 0 can be tracked NOW for your location showing map with azimuth and elevation plus other details from your city location.

Track the satellite on the map from your city or location and see movement details for azimuth, elevation, latitude, longitude, range, height, and movement on the map or in text.







IsCatalogInMostPopularTable: catalog: 43016, numindb: 4
Update: records affected: 1



GetName: 43016 MAKERSAT 0

Hit Count: updated at: Sun, 15 Jul 2018 23:17:37 GMT